CAPE
876 1591 2106 2436 2828 2989 2954 2861 2706 2639 2616 2501 2420 2381 2330 2316 2105 2152 2148 2130 2029 1909 1832 1749 1592 1398 1339 1548 1683 1777 1742 1627 1694 1780 1735 1550 1466 1436 1218 1152 1108 1117 1154 1130 1023 907 1054 1216 1146 968 922 862 849 822 902 775 820 837 787 781 816 862 838 785 723 655 660 639 626 615 661 737 781 928 987 711 526 435 537 457 458 380 337 466 470
1098 1734 2102 2439 2830 2903 2884 2769 2653 2578 2616 2568 2415 2340 2296 2201 2190 1992 2228 2200 2148 2050 1971 1878 1764 1730 1590 1473 1598 1791 1811 1788 1759 1702 1643 1625 1560 1444 1377 1280 1210 1193 1211 888 807 770 746 821 907 941 989 1009 924 900 886 782 804 808 811 872 871 913 805 830 866 820 698 639 523 450 576 667 757 709 672 674 584 462 439 389 519 382 442 385 158
1448 1821 2097 2430 2824 2846 2799 2697 2651 2642 2522 2496 2412 2328 2294 2308 2194 2061 2194 2218 2188 2143 2051 1936 1861 1893 1934 1901 1826 1890 1954 1881 1788 1721 1675 1566 1427 1354 1248 1178 1255 1343 1121 935 852 741 749 758 880 951 972 1065 1109 1090 947 948 914 897 876 868 900 930 981 910 819 739 736 672 678 716 654 678 676 624 550 407 288 254 425 394 456 354 274 228 234
1529 1843 2161 2500 2758 2702 2708 2672 2613 2557 2513 2481 2487 2444 2302 2238 2156 2170 2276 2271 2248 2183 2085 2090 1982 1961 1986 2010 1910 1873 1889 1952 1903 1784 1662 1648 1231 1052 1093 1176 1218 1264 1325 1127 1041 948 792 795 1465 1499 1488 1363 1236 1226 908 1027 1076 1005 988 961 947 974 883 790 758 757 700 647 608 463 414 149 359 506 339 351 363 293 194 461 455 318 165 152 230
1683 1885 2207 2414 2602 2685 2636 2639 2569 2560 2514 2506 2516 2423 2336 2320 2192 2159 2269 2276 2357 2302 2246 2150 2034 1971 2002 2098 2007 1985 1995 1921 1942 1832 1854 1728 1346 1197 1088 1124 1145 1145 1207 1052 874 744 655 649 1084 1443 1403 1329 1418 1072 918 1000 1110 1009 986 947 901 933 920 876 774 584 566 567 514 302 87 129 261 398 433 668 553 386 376 349 315 298 125 88 214
1684 1902 2134 2353 2480 2613 2626 2600 2564 2556 2543 2572 2480 2405 2366 2344 2276 2214 2245 2295 2354 2365 2287 2203 2091 1894 1841 1972 2017 2064 2070 1962 1856 1941 1988 1811 1640 1451 1136 1097 1092 1089 1042 763 762 693 628 815 1087 1338 1416 1540 1506 1072 972 930 1089 1128 1135 1105 1017 956 935 893 741 554 539 493 564 245 269 290 302 332 405 413 419 514 562 260 70 377 310 321 306
1727 1890 2114 2256 2398 2539 2618 2609 2574 2588 2585 2490 2464 2379 2363 2241 2233 2199 2224 2295 2404 2344 2269 2270 2209 2165 2025 1888 2037 2092 2029 1899 1854 2031 1914 1815 1700 1534 1277 1099 1071 1055 982 752 631 543 1289 1299 1166 1142 1235 1224 1135 1014 1009 1174 1241 1295 1258 1210 1136 1123 1113 1039 923 792 1157 759 242 328 332 127 283 301 448 380 848 808 616 504 343 284 223 100 86
1666 1851 2045 2226 2334 2510 2620 2598 2609 2596 2556 2429 2386 2366 2252 2235 2201 2206 2247 2376 2477 2344 2257 2267 2263 2290 2292 2216 2176 2158 2004 1892 1848 2002 2129 1896 1777 1746 1517 1211 1045 985 616 509 475 503 921 1300 1322 1241 1141 985 1001 1064 1155 1098 1107 1084 1113 1117 1112 1091 1116 1109 1107 1043 1058 705 474 381 369 137 127 242 411 380 1000 758 663 459 335 230 223 227 173
1621 1779 1991 2147 2354 2523 2630 2547 2595 2624 2479 2366 2332 2068 2216 2180 2242 2237 2266 2461 2464 2350 2264 2214 2226 2326 2318 2178 2050 2001 2016 1847 1709 1665 1629 1617 1585 1482 1384 1299 1271 1168 1093 1144 1111 1335 1346 1274 1225 1216 1176 1022 964 1064 1081 1070 1068 1014 1036 1057 1114 1020 1066 1060 1081 1146 1186 1002 566 475 485 461 511 569 631 561 596 326 312 393 484 386 468 384 225
1590 1767 1983 2146 2347 2431 2568 2536 2550 2554 2415 2361 2303 2242 2117 2231 2149 2277 2452 2502 2456 2353 2343 2270 2303 2298 2269 1837 1649 1761 1908 1770 1637 1572 1452 1318 1212 1214 1198 1023 829 759 614 1159 1944 1512 1351 1305 1363 1314 1264 1139 920 936 1002 920 965 933 961 914 973 848 903 1026 907 736 711 782 601 581 539 555 586 906 1058 783 609 568 544 576 809 368 255 339 305
1601 1905 1965 2237 2278 2366 2518 2517 2464 2408 2435 2340 2249 2238 2213 2188 2202 2226 2413 2463 2405 2326 2431 2379 2222 2226 1912 1833 2012 1981 1826 1756 1627 1498 1369 1260 1182 1131 990 883 794 987 1130 1886 1879 1613 1437 1344 1300 1255 1202 1132 1042 982 934 972 857 870 835 609 565 786 955 862 715 800 847 759 632 562 829 669 682 862 1021 887 704 401 332 445 286 302 344 310 252
1105 1263 2011 2257 2125 2224 2377 2447 2516 2458 2330 2240 2248 2251 2222 2105 2124 2250 2361 2380 2343 2289 2312 2341 2332 2107 1976 2058 2118 1972 1881 1730 1632 1529 1466 1335 1197 1059 944 834 787 1221 1560 1617 1603 1490 1338 1299 1260 1104 1091 1076 1024 986 905 831 762 735 718 699 744 955 1120 1142 636 803 858 749 588 597 585 510 696 821 901 746 572 550 444 372 403 349 332 259 240
1093 1394 1770 1946 1982 2097 2478 2508 2482 2398 2334 2233 2241 2337 2173 2103 2204 2314 2340 2346 2361 2352 2290 2330 2375 2252 2201 2283 2245 2166 2012 1832 1713 1614 1514 1358 1223 1069 931 839 898 1277 1489 1573 1553 1435 1339 1236 1191 1090 1077 986 922 877 696 652 591 603 606 520 729 960 1388 1028 634 695 725 616 555 393 383 518 510 755 635 529 358 264 275 445 528 547 482 243 116
1222 1394 1536 1652 1928 2209 2255 2385 2358 2458 2425 2407 2367 2365 2281 2280 2273 2328 2351 2381 2382 2485 2506 2444 2394 2264 2284 2242 2230 2217 2072 1952 1780 1653 1523 1369 1234 1081 966 920 999 1032 1174 1136 997 1281 1195 1120 1086 1066 965 788 640 652 669 661 651 412 477 563 899 1128 1327 1012 602 644 578 488 504 523 522 495 600 729 560 510 455 353 288 334 331 353 250 286 418
838 1110 1495 1686 1790 2376 2525 2366 2311 2365 2417 2422 2386 2350 2287 2275 2332 2337 2375 2474 2470 2472 2452 2408 2371 2314 2269 2286 2271 2166 2035 1894 1873 1640 1524 1370 1206 1086 975 918 1028 1031 1067 1082 1121 1183 1222 1075 990 959 823 655 688 738 706 593 516 388 610 648 664 963 1485 1129 590 621 488 597 631 582 535 458 928 764 599 544 416 337 332 268 229 220 252 251 102
877 964 1128 1483 1675 1852 2208 2406 2370 2393 2475 2544 2548 2420 2356 2397 2461 2497 2506 2482 2515 2535 2479 2436 2438 2407 2374 2333 2227 2154 1978 1823 1989 1707 1445 1289 1207 1124 1050 982 979 1053 1124 1168 1218 1240 1129 1019 1026 933 722 687 753 696 571 512 515 492 362 473 672 903 1478 1330 685 537 553 571 548 493 412 635 959 711 579 472 356 272 281 264 227 218 136 302 226
701 855 934 1086 1492 1740 2046 2247 2529 2616 2540 2592 2584 2518 2434 2438 2500 2520 2561 2574 2633 2637 2545 2575 2548 2503 2458 2386 2279 2170 2021 1962 1887 1742 1566 1422 1255 1132 1127 1065 1024 1035 1184 1274 1285 1163 1117 1176 1134 1003 791 806 803 652 590 527 466 431 443 586 736 987 1325 1472 1075 515 546 476 390 378 534 673 763 720 545 470 346 262 214 194 337 327 495 513 400
694 821 996 1033 1803 2128 2183 2253 2395 2436 2514 2610 2572 2475 2411 2410 2478 2536 2594 2596 2713 2713 2696 2634 2456 2349 2380 2346 2313 2168 2116 2004 1952 1880 1723 1682 1524 1225 1181 1159 1090 1161 1347 1431 1367 1214 1155 1205 1197 1119 1035 1032 916 832 724 593 490 584 598 559 589 917 782 1097 766 489 475 577 416 503 604 911 928 655 583 490 398 297 237 187 131 211 301 445 379
565 720 1070 1504 1734 2077 2049 2193 2316 2374 2384 2349 2337 2501 2523 2569 2539 2546 2588 2640 2729 2685 2591 2508 2316 2288 2232 2186 2132 2189 2197 2125 2060 1984 1870 1811 1586 1463 1519 1347 1326 1420 1493 1489 1359 1255 1194 1251 1286 1262 1179 1205 1110 889 748 607 565 668 658 497 786 402 425 542 495 436 438 368 410 535 571 1104 940 741 587 504 386 304 273 185 134 205 147 236 115
515 887 1287 1537 1838 1725 1993 2103 2165 2233 2255 2280 2315 2442 2681 2485 2237 2574 2697 2709 2587 2493 2509 2419 2330 2249 2167 2150 2202 2147 2052 1969 2082 1992 1898 1748 1824 1651 1740 1584 1592 1659 1558 1492 1406 1267 1254 1294 1333 1326 1279 1299 1179 1023 841 711 699 659 618 639 597 369 426 771 527 402 390 380 496 490 969 1080 770 661 580 489 412 359 249 170 107 144 376 377 434
640 942 1147 1652 1781 1842 1892 1982 2061 2171 2232 2227 2242 2298 2459 2514 2498 2663 2727 2570 2400 2319 2381 2314 2221 2175 2167 1981 1898 1853 1827 1758 1789 1791 1787 1749 1664 1819 1654 1622 1629 1616 1489 1415 1375 1276 1235 1324 1361 1386 1284 1328 1169 1019 819 702 655 611 621 635 568 355 467 780 672 439 458 514 555 563 1137 966 796 710 598 506 458 343 217 196 166 126 97 252 412
572 1052 1445 1597 1655 1777 1778 1886 2049 2160 2190 2160 2148 2166 2308 2227 2136 2315 2205 2058 2104 1994 1876 2018 2112 1758 1840 1657 1673 1613 1624 1653 1676 1793 1717 1756 1753 1853 1457 1535 1660 1640 1530 1383 1433 1398 1333 1467 1463 1426 1304 1248 1122 896 628 488 398 437 530 601 287 321 499 718 663 442 478 401 504 770 1160 1056 850 754 652 523 449 304 231 245 163 120 114 160 137
819 1243 1416 1394 1534 1647 1771 1880 2045 2077 2072 2048 2056 2086 2037 1883 1732 1710 1772 1656 1843 1529 1596 1650 1604 1520 1432 1515 1548 1408 1470 1644 1511 1704 1747 1709 1661 1603 1258 1340 1522 1606 1621 1632 1554 1530 1502 1527 1560 1452 1394 1328 986 702 446 138 0 95 222 298 278 299 449 702 686 528 516 488 456 1027 1077 1157 890 773 675 552 433 297 310 257 185 120 68 97 48
1120 1238 1313 1423 1561 1711 1786 1882 1985 2004 1948 1997 1967 1977 1952 1718 1452 1332 1356 1310 1288 1318 1366 1428 1419 1365 1398 1523 1395 1274 1290 1458 1597 1564 1594 1414 1466 1306 1173 1128 1529 1580 1746 1680 1649 1574 1629 1589 1567 1456 1335 1049 814 542 310 0 0 0 0 293 202 256 413 560 726 655 587 742 584 1220 1172 1190 964 777 690 566 416 333 274 212 150 110 87 48 148
1225 1213 1291 1634 1813 1760 1838 1925 1945 1934 1898 1955 1909 1948 1872 1546 1250 1090 1075 1054 1004 1139 1133 1226 1278 1284 1343 1530 1486 1335 1279 1337 1354 1281 1159 1188 1202 1226 1158 1094 1298 1460 1652 1444 1514 1536 1489 1446 1411 1322 940 701 517 340 4 0 0 0 0 0 90 266 358 534 754 662 610 643 759 1307 1201 1148 955 799 732 589 411 389 316 184 117 80 76 52 25
1249 1299 1487 1721 1849 1942 1901 1939 1974 1911 1863 1894 1858 1952 1824 1465 1225 1131 1035 969 908 930 981 1066 1146 1200 1282 1375 1424 1338 1274 1188 1280 1244 1060 1155 1154 1090 1084 1124 1492 1542 1539 1467 1454 1453 1409 1386 1300 1174 911 678 367 68 5 121 308 312 251 0 0 14 331 422 700 725 630 615 875 1335 1170 1121 1044 848 756 605 476 467 349 212 148 139 106 67 47
1436 1514 1713 1788 1847 1960 1950 1923 1954 1968 1874 1839 1846 1870 1691 1463 1248 1159 1040 953 880 843 945 928 913 948 1094 1173 1198 1255 1192 1228 1229 1253 1198 1090 1000 1123 1185 1065 1201 1380 1449 1410 1408 1347 1410 1382 1268 1134 1011 895 689 552 556 477 287 22 3 0 0 57 349 409 715 648 638 601 915 1350 1126 1143 1137 874 755 617 555 511 400 314 225 142 86 77 47
1696 1737 1892 1881 1848 1978 1986 1893 1917 1980 1850 1866 1826 1669 1606 1410 1339 1505 1086 985 914 772 785 877 902 846 886 1079 1004 914 1157 1245 1273 1158 1123 1129 983 1002 1054 1095 1057 1030 1355 1226 1104 1156 1368 1293 1145 1042 1024 969 823 432 349 309 0 0 0 0 0 0 299 348 727 608 605 633 842 1276 1136 1147 1158 1118 825 656 614 588 451 394 316 167 144 92 76
1978 2011 2021 1816 1766 2018 2025 1929 1928 1988 1892 1881 1717 1613 1512 1363 1271 1230 1052 1449 919 815 830 839 859 851 899 1263 1435 1006 975 1085 1195 1173 1191 1072 988 967 1040 1024 996 994 953 901 799 922 1033 969 806 748 717 656 448 98 44 92 15 0 0 0 0 0 0 207 658 498 558 598 782 1137 1212 1124 1152 1166 924 748 625 652 511 369 358 284 204 116 76
2199 2208 2154 2064 1898 1917 2051 2002 1920 2052 1955 1865 1719 1616 1511 1356 1299 1223 1163 1669 1200 1131 1119 966 923 1006 1073 1340 1498 1393 1028 1111 1259 1276 1281 1128 1078 981 923 958 909 794 822 799 626 686 804 754 683 679 717 701 541 162 232 122 21 0 0 0 0 0 0 361 526 456 547 612 733 842 1273 1123 1021 1144 1096 853 717 722 624 429 405 297 207 158 101
2308 2323 2065 2062 1995 2045 2154 2132 2025 2045 2116 2030 1801 1746 1679 1598 1433 1406 1458 1572 1572 1435 1272 1227 1197 1177 1256 1339 1415 1316 1166 1153 1222 1217 1249 1178 1146 1108 1100 1064 899 834 852 795 698 641 636 590 661 740 772 727 606 622 515 142 31 0 0 0 0 0 1 308 407 445 567 660 685 757 1254 1287 1058 1067 1033 943 916 800 696 566 494 381 212 146 160
1971 1673 1723 1970 1941 2280 2414 2348 2156 2134 2166 2260 2235 1997 1948 1909 1869 1805 1732 1602 1516 1414 1337 1320 1268 1201 1282 1262 1334 1392 1359 1287 1233 1190 1107 1209 1209 1196 1112 1008 866 790 745 774 703 641 714 794 811 820 841 750 604 632 688 362 45 0 0 0 0 0 0 156 364 432 616 676 671 781 1025 1124 1167 1027 1078 921 1019 1140 793 748 598 551 400 152 160
1570 1477 1703 1729 1889 1996 2466 2412 2227 2235 2239 2271 2247 2208 2066 1978 1856 1699 1614 1518 1423 1282 1383 1357 1340 1267 1184 1188 1233 1343 1388 1274 1106 1156 1264 1254 1108 985 895 752 703 753 706 765 755 726 766 802 902 904 784 386 452 656 720 546 366 6 0 73 33 30 0 5 343 513 624 661 691 749 974 1029 1012 1177 1015 1050 981 1098 1096 853 622 619 561 368 233
1141 1024 1558 1937 2199 2325 2377 2437 2345 2275 2321 2264 2090 2041 1977 1989 1854 1721 1634 1522 1474 1508 1465 1296 1187 1342 1432 1304 1268 1310 1216 1161 1120 1184 1246 1148 940 871 825 768 732 752 767 742 764 758 696 766 873 861 838 493 740 679 550 496 53 19 52 56 36 16 1 1 89 550 655 658 692 775 927 981 947 1061 1009 1350 1112 1013 1011 1140 749 712 649 466 362
1217 1253 1562 1839 2246 2419 2540 2484 2245 1913 2025 2078 1976 1988 2010 1996 1816 1698 1640 1494 1498 1368 1122 1012 1110 1247 1352 1363 1394 1303 1282 1280 1130 1121 1201 1200 1016 940 912 906 888 881 862 816 773 785 845 906 872 828 927 783 661 537 451 399 108 342 219 32 92 60 11 27 10 552 704 738 718 698 733 844 871 1031 1035 1110 1252 1111 910 1142 1135 1093 738 504 458
1218 1458 1638 2066 2174 2571 2575 2169 1875 1621 1518 1764 1804 1890 1914 1842 1721 1752 1689 1520 1283 1102 993 954 1239 1433 1280 1469 1524 1487 1280 1100 1038 1085 1098 1148 1073 1022 984 908 892 963 886 833 850 882 850 793 826 904 907 896 692 562 463 410 337 438 358 176 122 98 56 65 71 378 678 690 754 788 748 774 725 863 1081 1061 1138 1120 1112 969 1131 1127 1137 719 587
1397 1586 1559 2081 2358 2699 2297 1972 1745 1563 1489 1583 1639 1713 1650 1657 1605 1762 1713 1410 1104 935 950 1097 1485 1591 1458 1492 1529 1394 1212 1068 1081 1242 1266 1166 1152 1052 995 910 880 975 962 898 928 950 858 800 894 965 994 973 772 584 497 386 422 417 474 531 497 330 92 113 146 105 463 765 754 786 830 748 703 652 823 1021 1074 1123 1166 1168 1083 973 1020 969 934
1443 1528 1628 2089 2323 2432 2087 1831 1572 1354 1304 1407 1443 1492 1565 1576 1479 1593 1521 1245 997 816 1019 1289 1316 1267 1383 1178 951 1137 1006 1004 1113 1278 1287 1127 1040 993 897 844 839 861 886 872 915 846 780 788 919 1001 1016 996 932 695 536 413 457 520 558 622 611 559 555 374 326 209 53 48 312 570 685 686 616 628 579 759 946 1019 1094 1127 1114 1043 806 649 976
1249 1189 1352 1670 2030 2068 1794 1362 1240 1193 1045 920 1002 1216 1422 1507 1304 1389 1460 1242 800 874 1059 1178 995 966 1095 877 934 1170 931 968 1023 1137 1059 1070 967 949 815 722 692 758 779 951 939 913 846 800 885 930 812 961 986 815 627 476 402 307 377 456 562 677 638 457 298 292 234 164 120 129 72 78 353 504 524 575 611 808 913 1018 1075 1102 781 685 748
1344 1240 1221 1365 1667 1691 1200 1042 1089 882 926 1034 984 921 838 829 859 1052 988 693 594 787 834 895 871 904 780 632 628 980 986 944 1001 784 757 785 702 680 581 569 699 751 680 689 845 892 866 828 899 922 841 924 934 936 805 643 510 486 416 379 598 560 747 678 376 255 247 245 173 138 66 49 18 365 433 424 472 498 629 825 950 1016 990 753 714
1194 1165 1037 1449 1358 1179 995 802 760 684 757 738 624 465 378 331 0 0 0 431 505 544 585 504 409 208 0 85 288 7 528 959 969 758 637 726 560 538 511 454 502 600 585 547 598 832 879 894 880 812 833 893 843 872 861 730 598 559 449 516 508 604 786 902 719 425 191 209 208 157 64 47 6 1 374 334 285 372 454 445 681 885 992 907 763
1036 1006 1326 1577 1692 1198 946 825 743 724 659 564 498 364 0 319 210 186 0 0 0 55 57 42 0 0 0 0 0 0 0 0 100 0 90 668 523 621 553 421 466 570 619 582 627 705 796 739 782 713 783 772 870 750 725 693 678 632 616 509 400 570 709 807 984 1042 794 300 173 210 167 81 22 403 287 46 265 96 138 401 512 638 813 906 839
1095 1284 1560 1737 1552 1108 1021 865 728 735 659 409 19 0 0 0 0 0 0 0 0 0 0 0 0 0 0 0 0 0 0 0 0 0 0 471 604 588 562 516 520 595 776 732 667 673 787 782 767 766 760 747 730 687 711 695 730 684 622 502 478 435 451 523 814 915 1005 783 503 182 314 90 85 396 476 184 16 177 242 152 256 490 634 753 764
1575 1625 1556 1431 1235 1136 789 714 757 516 473 344 20 0 0 0 166 214 184 0 0 0 0 0 0 0 0 0 0 0 0 0 0 0 0 0 0 0 0 418 649 901 892 669 734 750 791 786 772 666 696 688 643 612 616 704 642 656 620 490 432 384 265 52 572 544 623 723 890 1038 605 541 694 482 433 587 525 286 408 413 345 498 634 593 631
1614 1388 1226 1076 935 827 818 859 772 553 510 316 37 25 14 151 229 205 122 0 0 0 0 0 0 99 0 0 0 0 0 0 0 0 0 0 0 0 0 0 753 794 596 291 31 98 508 630 588 553 604 665 573 624 556 604 685 583 546 469 327 160 136 486 636 459 528 73 793 1018 1233 825 617 767 634 593 663 588 566 693 654 623 686 524 549
1720 1371 1328 1227 1067 921 866 901 754 422 423 343 277 223 173 1 192 108 0 0 0 0 0 0 0 0 0 0 0 0 0 0 0 0 0 0 0 0 0 0 0 0 0 0 0 0 0 610 507 524 611 602 635 623 555 667 705 619 576 737 413 35 472 487 475 57 483 549 560 645 606 732 681 780 724 595 582 604 563 589 714 775 640 560 530
1587 1499 1390 1370 1239 1033 928 906 672 649 520 437 347 255 0 0 0 0 0 0 0 0 0 0 0 0 0 0 0 0 0 0 0 0 0 0 0 0 0 0 0 0 0 0 0 0 0 0 21 688 449 2 0 0 1 525 577 608 593 441 456 390 470 366 268 378 3 349 342 397 415 485 442 549 731 646 550 407 549 591 601 666 689 670 628
1782 1717 1643 1611 1354 1164 956 852 806 814 557 512 411 237 0 0 0 0 0 0 0 0 0 0 0 0 0 0 0 0 0 0 0 0 0 0 0 0 0 0 0 0 0 0 0 0 0 0 0 0 0 0 0 79 390 51 145 434 594 468 340 276 441 409 453 250 314 374 398 235 592 568 444 361 439 609 518 355 274 521 533 587 668 692 777
1971 1926 1858 1773 1640 1139 958 950 964 754 358 355 351 117 0 0 0 0 0 0 0 0 0 0 0 0 0 0 0 0 0 0 0 0 0 0 0 0 0 0 0 0 0 0 0 0 0 0 0 0 0 0 0 0 0 0 153 343 217 1 0 76 227 287 327 324 320 23 4 23 1 0 326 369 560 287 256 429 181 64 145 481 522 638 677
2085 2004 1915 1789 1646 1118 817 982 999 596 372 261 154 177 0 0 0 0 0 0 0 0 0 0 0 0 0 0 0 0 0 0 0 0 0 0 0 0 0 0 0 0 0 0 0 0 0 0 0 0 0 0 0 0 0 0 0 0 0 68 74 93 25 134 159 186 152 72 0 0 0 0 0 0 224 311 198 253 313 190 81 0 47 356 519
2028 2009 1988 1892 1706 1559 768 872 771 540 429 298 169 25 21 0 0 0 0 0 0 0 0 0 0 0 0 0 0 0 0 0 0 0 0 0 0 0 0 0 0 0 0 0 0 0 0 0 0 0 0 0 0 0 0 0 0 0 0 0 26 14 0 0 0 20 20 0 0 0 4 1 0 0 0 0 38 193 264 191 75 36 48 17 25
Wind_Speed
30 34 33 34 37 43 44 45 45 47 46 44 42 41 41 42 40 39 38 36 35 35 35 35 36 36 36 36 36 37 38 39 40 40 39 39 39 37 35 33 32 31 30 29 27 26 25 25 24 24 25 26 26 26 27 27 26 25 24 24 24 24 24 25 25 23 23 24 23 22 21 21 21 21 22 24 23 20 17 16 13 10 9 12 15
40 36 37 35 38 41 43 45 46 47 46 43 42 40 40 40 39 37 36 35 34 34 35 35 35 35 35 35 36 36 37 38 38 38 38 38 38 37 35 33 32 31 30 28 26 26 25 24 24 23 24 25 25 26 26 26 24 23 23 24 24 23 23 24 24 24 23 23 22 22 22 23 21 21 23 24 23 20 17 16 15 10 9 14 15
45 41 38 37 39 41 44 47 48 46 44 43 41 40 40 40 38 36 34 34 34 34 34 34 34 35 35 35 35 36 36 37 37 37 37 36 36 36 35 33 32 31 30 28 26 25 24 23 22 22 23 24 25 25 25 25 24 23 23 23 23 23 23 23 24 24 23 23 23 23 23 23 22 22 23 23 22 20 18 16 15 15 11 15 14
48 42 40 40 43 42 44 46 45 44 43 42 40 40 40 39 37 35 34 34 34 34 34 34 34 34 34 34 34 35 36 36 36 37 36 34 34 35 35 33 32 31 30 28 26 25 23 24 22 21 23 24 24 25 24 24 24 23 22 23 23 22 22 23 23 24 24 23 22 19 15 14 17 21 21 24 23 20 18 18 17 15 15 14 16
48 44 41 41 40 41 42 43 44 45 44 42 40 40 40 38 37 35 34 33 33 34 35 34 34 34 33 33 35 35 36 36 35 36 35 33 32 34 33 32 31 30 29 28 26 25 23 23 22 21 21 22 24 22 23 23 23 22 21 22 22 20 20 21 23 24 24 23 22 18 nan 14 14 19 21 23 23 20 18 18 17 16 15 nan 15
48 45 43 41 40 39 41 43 45 45 43 42 42 40 40 39 37 36 35 33 33 34 34 34 33 33 33 33 34 35 35 35 34 34 33 32 31 31 32 31 30 29 29 27 25 23 23 24 23 21 21 23 23 21 22 22 22 21 20 20 20 20 20 19 21 23 25 23 20 16 14 14 13 16 22 21 21 20 20 18 nan 16 16 17 17
50 45 43 42 40 38 41 43 43 43 41 41 41 41 40 39 37 35 34 34 33 33 33 33 32 32 33 33 33 34 34 35 34 33 33 31 30 30 30 30 29 27 27 26 24 23 26 24 24 23 22 23 22 20 20 21 21 21 19 19 19 19 19 18 17 20 23 21 18 16 15 14 13 12 19 19 23 23 21 19 18 17 17 16 nan
48 46 45 43 40 42 43 42 42 41 41 41 41 41 39 38 36 35 34 33 32 31 32 31 31 31 32 32 33 34 34 35 35 35 33 31 30 28 27 26 25 26 26 25 23 21 24 24 24 24 22 23 20 20 19 19 20 20 19 19 19 18 18 16 16 16 19 19 18 16 15 14 13 13 19 19 23 22 21 19 18 18 18 17 17
48 47 47 45 42 47 44 42 42 41 41 41 41 40 39 38 36 35 34 33 32 31 30 30 30 30 31 32 33 34 35 36 36 36 35 33 31 29 28 25 24 24 23 21 19 19 27 24 23 23 22 22 19 18 18 17 18 19 19 19 17 17 17 18 17 17 17 18 16 16 16 13 12 13 17 19 21 22 21 19 18 18 18 17 17
48 49 48 46 44 47 45 44 42 41 40 41 41 40 39 38 36 35 33 33 31 30 29 29 29 29 30 32 33 34 35 36 36 37 36 34 32 30 28 26 24 24 22 23 27 29 27 25 23 23 23 21 19 16 16 16 16 18 19 18 16 16 17 18 18 16 17 17 17 17 16 13 12 14 18 20 21 21 21 21 17 17 16 18 18
46 44 48 47 46 47 46 44 42 41 40 40 39 40 39 37 36 35 33 33 32 30 28 28 28 29 30 32 33 34 35 36 36 36 35 34 32 30 29 27 24 21 24 29 28 29 28 26 23 23 22 20 18 16 14 15 16 17 18 17 16 16 16 19 19 19 20 19 18 17 17 15 13 15 20 21 20 20 21 21 20 20 20 19 18
46 40 44 46 48 49 47 43 43 40 39 40 39 39 37 36 36 34 33 32 31 30 28 27 28 30 32 33 33 33 34 36 36 36 35 33 32 30 29 27 25 26 27 27 28 29 28 26 23 21 21 20 18 18 16 16 17 17 18 18 17 16 18 23 21 23 23 21 19 18 18 16 13 17 22 21 19 20 20 20 20 20 20 20 19
45 45 43 46 47 48 47 44 40 38 37 38 38 37 36 35 34 33 32 31 30 29 29 28 29 29 31 33 34 34 34 35 35 35 34 33 32 31 29 27 27 28 26 26 26 27 28 25 22 20 21 21 20 19 17 17 17 17 19 19 18 19 21 23 21 23 23 21 20 20 19 16 16 20 21 22 20 18 20 20 21 21 20 19 19
43 45 48 47 44 47 45 42 38 37 36 36 35 34 33 33 32 32 32 31 30 29 28 29 30 30 31 32 33 34 34 35 35 35 35 33 32 31 29 28 27 27 26 25 24 25 25 24 22 20 21 22 20 19 18 18 18 19 20 20 21 22 21 20 20 21 22 22 21 20 20 18 17 21 20 20 20 19 20 19 20 20 20 20 20
43 40 46 45 45 43 44 39 37 37 36 35 32 30 30 30 31 31 31 30 30 29 30 31 30 32 32 33 34 34 35 34 34 34 35 33 32 31 29 27 27 27 27 25 23 23 24 24 22 21 21 21 21 20 19 19 20 20 21 20 21 23 23 17 18 19 22 23 22 21 20 19 20 21 22 21 20 20 20 20 20 20 20 20 20
37 38 37 38 43 42 40 39 39 38 35 32 29 28 29 29 30 30 29 28 29 29 30 30 31 31 32 33 34 34 34 34 34 34 34 33 32 31 29 28 27 27 26 24 23 22 22 23 22 20 19 20 21 20 19 21 20 22 21 20 21 23 23 18 18 19 22 22 22 22 21 20 23 22 23 23 22 21 20 20 20 19 19 20 19
34 34 29 29 39 37 37 37 37 37 32 29 28 28 28 28 28 27 26 26 28 28 29 29 30 31 32 33 34 34 34 35 35 35 34 33 32 31 30 28 27 26 25 24 22 21 22 22 21 19 18 18 20 20 20 20 21 22 22 21 23 23 21 18 17 18 21 21 23 23 21 21 23 23 25 24 23 21 20 20 21 21 19 18 19
35 34 31 28 33 35 37 36 35 32 28 27 27 27 26 24 23 23 24 26 27 28 27 27 29 31 31 32 33 34 34 34 34 34 34 32 32 31 30 28 26 25 25 24 21 21 21 21 20 19 18 16 17 17 18 20 21 22 22 23 24 23 21 20 17 17 19 21 22 24 23 22 24 24 25 24 23 21 21 21 21 21 20 19 19
34 30 27 29 28 33 38 36 33 31 28 25 23 23 23 21 20 21 23 25 26 26 27 27 30 31 31 31 32 32 33 33 33 33 32 31 31 31 28 27 25 25 25 22 21 20 20 20 19 19 17 16 15 15 17 19 20 21 22 23 25 24 22 21 19 17 18 21 23 25 24 23 24 25 25 25 24 22 22 20 21 20 19 19 18
32 28 28 31 29 31 34 35 33 31 29 26 24 21 20 18 17 20 23 24 25 26 27 29 30 30 31 31 30 28 29 29 33 31 33 31 30 27 29 27 25 24 23 21 20 19 20 19 19 19 17 15 14 14 15 17 19 20 22 23 24 24 21 21 19 18 19 20 22 24 25 26 25 25 26 25 24 24 23 22 20 20 20 19 19
33 30 29 31 32 35 36 35 33 32 30 27 25 22 18 16 14 19 23 26 26 27 28 30 29 29 29 31 29 26 25 25 27 25 31 27 28 28 29 29 26 24 22 20 19 18 18 19 19 18 17 16 15 14 15 15 17 19 20 22 24 23 19 20 21 20 19 19 20 21 26 27 26 26 26 26 26 26 23 21 21 19 nan 20 19
30 29 33 31 30 32 35 35 35 32 30 28 25 22 16 12 13 16 20 23 25 27 27 26 28 25 29 28 26 25 26 25 25 26 25 24 26 28 28 28 27 24 21 20 19 18 18 18 17 16 16 16 15 18 18 18 17 17 19 21 23 22 20 21 22 21 20 19 18 19 25 27 27 27 27 27 27 26 23 22 21 20 20 20 19
27 28 32 34 31 31 31 32 34 31 29 28 24 20 14 11 13 17 19 23 25 26 24 26 25 25 24 24 25 25 25 25 25 26 25 27 26 28 27 26 25 24 22 20 19 17 17 17 17 16 16 16 19 19 20 19 nan nan 19 21 21 23 21 21 22 22 21 20 19 18 22 26 28 28 28 28 29 27 23 22 22 21 nan nan nan
30 28 29 31 31 30 28 28 30 29 28 25 22 17 12 10 14 18 19 20 23 24 25 25 25 24 23 23 24 25 25 25 26 28 27 24 25 26 26 23 22 23 22 20 18 17 18 17 17 16 17 19 20 20 20 nan nan nan nan 20 21 24 21 21 22 22 22 21 20 18 20 24 27 28 29 29 28 27 24 24 23 22 nan nan 20
32 28 24 26 30 29 27 27 27 27 24 20 16 11 9 11 13 18 20 20 22 23 24 24 24 23 23 22 23 23 23 24 24 25 24 23 23 21 20 20 20 23 23 23 21 20 21 20 19 19 19 19 20 20 nan nan nan nan nan nan nan 25 20 21 22 23 22 22 21 19 20 23 25 27 28 29 28 26 25 26 24 nan nan nan nan
32 30 25 23 27 29 27 24 24 24 20 18 14 10 11 11 13 16 19 20 21 22 23 23 23 22 20 20 21 22 21 23 23 23 23 23 23 19 19 21 22 23 25 23 22 22 22 20 20 19 18 20 21 nan nan 21 21 21 20 nan nan nan 19 19 22 23 23 23 22 21 21 23 24 25 27 27 27 26 26 27 25 24 23 nan nan
29 28 23 20 22 21 21 17 17 19 17 15 13 11 10 10 13 15 17 19 20 21 21 21 21 20 19 19 20 21 21 20 22 23 22 21 21 20 22 22 20 21 22 23 22 22 21 19 19 18 20 22 21 21 20 19 20 nan nan nan nan nan 20 19 21 23 23 24 23 22 23 24 24 25 25 25 25 26 26 26 26 25 nan nan nan
27 26 21 19 20 17 13 12 12 14 12 12 12 11 10 11 12 13 16 17 19 20 20 19 20 19 18 19 19 20 20 19 19 21 21 20 20 22 24 23 20 18 19 20 21 21 19 19 18 18 20 20 21 21 21 19 nan nan nan nan nan nan 22 21 20 22 24 24 24 23 24 24 25 25 25 25 24 25 27 27 26 26 26 nan nan
27 24 19 19 19 11 6 15 19 19 14 12 13 11 11 12 12 14 15 15 18 19 19 18 18 17 17 18 19 19 19 18 18 17 20 19 21 23 23 21 20 19 19 18 18 18 18 17 20 21 20 19 21 nan nan nan nan nan nan nan nan nan nan 22 21 23 25 25 25 24 24 25 26 26 26 25 24 25 27 27 27 28 28 26 nan
24 25 23 23 22 20 6 6 13 16 12 9 9 10 11 12 12 13 14 14 15 17 18 17 17 17 17 18 18 17 17 17 16 17 18 19 20 21 21 20 20 19 19 16 15 16 17 18 18 19 19 19 18 17 18 17 nan nan nan nan nan nan nan 23 21 23 24 25 25 24 24 26 27 27 28 26 24 24 26 27 28 29 29 28 27
26 27 27 26 23 21 11 8 11 14 11 9 9 10 11 12 13 13 13 13 13 14 17 16 16 16 16 16 16 16 15 15 16 16 17 17 17 18 18 19 19 18 18 14 16 17 18 17 16 17 18 17 15 17 18 17 nan nan nan nan nan nan nan 22 22 23 25 25 25 25 25 26 28 29 30 28 26 24 25 26 28 30 30 29 28
26 26 25 23 22 18 14 12 11 12 12 12 12 13 12 13 14 14 13 13 13 13 15 16 16 16 15 14 14 15 14 12 14 15 15 14 14 15 17 18 16 15 16 16 18 18 18 17 16 17 18 17 17 17 18 17 nan nan nan nan nan nan nan 23 22 22 24 25 26 25 26 27 27 29 30 29 27 25 26 25 26 28 30 31 30
29 29 28 25 21 16 14 13 12 13 12 13 13 13 14 14 16 15 14 13 13 13 14 15 16 15 14 13 13 13 12 12 12 11 11 11 13 16 17 16 14 13 15 17 17 16 16 16 17 18 19 18 17 17 19 21 19 nan nan nan nan nan nan nan 25 23 23 24 26 26 26 26 27 28 29 30 28 27 27 25 25 27 29 30 32
30 30 31 29 22 14 10 10 12 15 14 14 14 15 13 14 15 16 14 14 12 13 14 15 15 14 14 13 12 12 13 12 12 9 11 14 17 18 16 14 13 13 14 16 16 15 15 16 16 18 17 17 15 14 17 17 nan nan nan nan nan nan nan nan nan 24 26 28 30 31 29 29 27 28 29 29 29 29 29 27 25 26 28 29 31
29 33 37 37 28 14 7 10 13 16 17 17 17 15 14 15 15 14 13 12 12 11 14 14 14 13 13 13 12 12 13 12 11 12 13 15 16 17 15 13 13 13 14 14 15 14 14 14 16 18 17 16 15 15 15 16 19 21 19 nan nan nan nan nan nan 26 26 27 29 30 31 32 31 31 30 31 30 30 29 28 28 26 27 27 29
30 35 38 39 28 10 6 13 16 18 18 20 18 17 16 15 14 13 12 11 12 11 12 13 13 13 12 12 12 12 13 13 14 14 14 14 15 15 15 15 14 14 15 14 14 14 13 14 15 16 15 14 15 17 15 16 19 20 18 18 19 nan nan nan nan 25 25 28 29 30 31 33 34 33 30 30 31 32 29 29 29 28 27 26 27
24 27 29 29 21 7 10 17 19 20 20 20 19 17 16 16 15 13 12 11 11 10 10 12 12 13 12 12 11 12 12 13 14 14 15 14 15 16 16 16 15 14 14 13 14 13 13 13 15 15 15 14 16 18 17 18 19 18 18 18 18 19 nan 19 21 23 26 28 28 29 30 31 33 31 30 30 31 33 31 29 30 30 29 27 26
20 23 21 21 8 7 12 14 16 19 20 22 20 19 17 17 16 15 13 11 10 9 9 10 11 11 12 11 11 11 12 13 14 15 15 16 15 16 17 17 16 16 16 14 15 14 14 15 16 15 15 16 17 17 17 17 18 18 18 18 18 19 20 22 21 22 nan nan 27 29 29 29 29 29 30 30 31 31 33 32 29 30 30 28 27
16 20 11 2 3 8 12 14 18 19 19 19 19 18 17 16 17 17 15 13 12 10 10 10 10 10 10 10 11 12 12 12 14 14 15 16 16 17 18 17 18 18 17 16 15 15 15 15 18 15 18 17 15 15 17 18 18 17 18 18 18 17 18 20 23 23 24 23 24 26 nan nan 30 28 29 30 30 31 32 35 34 34 33 28 28
15 20 26 20 15 13 15 17 19 21 20 19 19 19 19 19 20 19 19 16 14 15 13 13 13 13 12 13 13 13 12 12 12 13 14 15 16 17 19 18 19 19 18 17 16 15 15 18 17 16 18 18 17 18 18 19 19 20 18 17 16 16 17 18 21 22 22 22 23 23 nan nan nan 29 28 28 29 29 32 34 34 34 35 31 27
19 26 29 25 20 19 20 21 19 20 22 20 19 20 20 19 nan nan nan 17 17 15 15 14 14 13 nan nan 14 nan 13 13 12 12 13 15 16 18 19 18 18 18 18 17 17 16 16 16 17 19 20 19 18 19 19 20 20 19 18 18 17 16 17 18 19 19 20 21 22 22 nan nan nan nan 25 26 27 28 30 32 33 33 33 35 32
22 24 28 26 21 20 22 21 20 19 21 21 20 19 nan 18 20 19 nan nan nan nan nan nan nan nan nan nan nan nan nan nan 13 nan nan 16 15 16 18 20 18 17 17 18 18 18 18 17 18 21 21 21 19 18 18 20 20 20 19 18 18 18 19 19 19 18 19 19 19 19 15 nan nan 22 24 nan 26 nan 28 31 33 33 33 34 34
25 26 28 26 22 21 21 21 20 20 20 21 nan nan nan nan nan nan nan nan nan nan nan nan nan nan nan nan nan nan nan nan nan nan nan 16 16 16 16 17 19 17 18 19 20 20 20 19 19 20 22 21 20 19 18 20 20 21 20 20 19 21 19 21 20 21 20 18 18 18 16 nan nan 18 20 22 nan 26 29 31 32 33 34 32 34
24 26 27 26 22 21 21 21 20 20 21 20 nan nan nan nan 15 17 15 nan nan nan nan nan nan nan nan nan nan nan nan nan nan nan nan nan nan nan nan 19 19 18 20 20 20 20 20 21 21 21 22 22 21 21 20 20 21 23 21 20 19 20 19 nan 20 18 19 19 19 19 19 18 17 17 21 22 24 26 28 32 31 32 33 32 33
23 26 26 25 22 21 20 21 21 21 22 22 nan nan nan 17 16 16 17 nan nan nan nan nan nan nan nan nan nan nan nan nan nan nan nan nan nan nan nan nan 20 18 19 19 nan nan 18 19 20 21 21 21 22 22 22 21 21 21 22 22 20 20 18 19 21 19 20 nan 19 20 20 20 19 18 20 20 21 25 29 29 30 31 31 33 34
24 24 26 26 24 22 21 21 22 22 23 23 25 25 22 nan 17 18 nan nan nan nan nan nan nan nan nan nan nan nan nan nan nan nan nan nan nan nan nan nan nan nan nan nan nan nan nan 20 19 20 21 21 23 23 22 22 22 22 21 19 19 nan 19 19 22 nan 19 20 18 18 19 19 19 19 20 20 20 23 27 31 31 30 31 32 32
23 25 26 28 27 25 23 23 23 22 24 26 29 31 nan nan nan nan nan nan nan nan nan nan nan nan nan nan nan nan nan nan nan nan nan nan nan nan nan nan nan nan nan nan nan nan nan nan nan 22 23 nan nan nan nan 21 22 22 22 21 22 21 20 21 21 21 nan 20 21 20 20 20 19 17 17 19 19 21 23 28 29 31 33 32 30
24 25 25 25 26 25 24 25 25 25 26 28 30 32 nan nan nan nan nan nan nan nan nan nan nan nan nan nan nan nan nan nan nan nan nan nan nan nan nan nan nan nan nan nan nan nan nan nan nan nan nan nan nan nan 22 nan 21 21 21 22 21 21 22 24 23 22 22 23 21 20 20 18 17 16 14 15 17 17 20 27 27 25 29 33 35
22 23 23 23 24 24 25 25 25 26 26 27 29 29 nan nan nan nan nan nan nan nan nan nan nan nan nan nan nan nan nan nan nan nan nan nan nan nan nan nan nan nan nan nan nan nan nan nan nan nan nan nan nan nan nan nan 21 20 21 nan nan nan 21 22 23 24 24 nan nan nan nan nan 20 18 16 14 14 16 16 nan 17 22 22 29 34
19 20 21 23 24 23 26 27 26 24 23 23 26 28 nan nan nan nan nan nan nan nan nan nan nan nan nan nan nan nan nan nan nan nan nan nan nan nan nan nan nan nan nan nan nan nan nan nan nan nan nan nan nan nan nan nan nan nan nan nan nan nan nan 22 23 25 25 nan nan nan nan nan nan nan 21 19 17 17 17 19 nan nan nan 27 27
18 21 21 21 22 22 24 26 25 24 23 24 27 nan nan nan nan nan nan nan nan nan nan nan nan nan nan nan nan nan nan nan nan nan nan nan nan nan nan nan nan nan nan nan nan nan nan nan nan nan nan nan nan nan nan nan nan nan nan nan nan nan nan nan nan nan nan nan nan nan nan nan nan nan nan nan nan 20 20 21 nan nan nan nan nan
Wind_Direction
282 282 277 280 282 286 286 286 288 287 286 286 285 283 283 283 283 284 285 286 288 288 289 290 291 293 294 294 294 293 292 291 292 292 293 293 294 294 294 294 292 288 285 282 279 277 274 272 273 273 272 272 271 269 267 268 268 268 267 263 260 257 253 249 248 249 246 243 242 245 243 244 243 242 241 240 239 237 232 225 209 190 178 208 220
288 282 279 279 282 283 284 285 288 287 285 285 284 283 283 284 284 285 286 287 288 289 290 291 292 292 293 294 294 293 292 292 292 293 294 294 295 296 296 294 292 289 286 283 280 276 272 270 271 271 271 272 272 269 267 270 270 270 269 267 262 257 254 250 246 244 244 244 244 245 246 246 243 241 240 238 239 237 234 231 223 188 178 218 218
284 280 280 283 285 284 284 286 288 285 285 286 285 284 284 285 286 286 287 288 289 289 290 290 291 292 292 293 294 293 292 292 292 293 293 295 295 296 295 293 292 290 288 286 281 277 273 270 269 273 274 273 272 269 268 270 270 269 270 268 264 260 253 248 246 245 245 245 245 246 247 247 243 242 241 237 237 237 234 230 223 217 200 220 213
285 280 280 285 288 286 286 287 287 286 287 287 285 285 284 285 286 286 287 288 289 289 289 290 291 292 292 293 293 293 292 292 292 292 293 295 296 295 294 293 292 290 288 287 283 276 269 265 267 271 272 273 271 268 268 270 269 267 267 265 264 261 254 250 247 244 243 240 236 231 224 227 238 243 239 236 237 237 234 232 231 226 225 220 221
283 282 280 281 283 286 286 288 289 288 287 286 285 285 284 284 286 286 287 287 288 289 289 290 292 293 293 293 293 292 291 291 292 292 293 294 294 294 293 292 292 290 288 286 281 275 269 263 262 264 263 265 268 266 265 267 266 265 265 265 264 262 255 252 248 247 245 240 234 228 nan 230 231 240 239 239 237 237 234 231 231 230 224 nan 223
282 280 279 279 281 283 286 288 289 288 286 286 285 283 283 283 285 285 286 287 287 288 290 292 292 293 293 293 293 292 291 290 290 290 291 293 293 294 292 291 291 289 287 284 282 277 271 263 258 253 255 262 264 263 263 265 265 265 264 264 262 258 254 253 253 252 248 239 228 220 223 227 231 235 242 240 238 237 236 235 nan 232 226 223 219
280 278 277 277 277 280 282 286 287 285 283 283 282 282 281 282 283 284 285 287 288 289 291 292 292 292 294 294 293 292 291 290 288 287 288 289 290 292 293 292 293 291 287 285 281 275 272 267 258 252 250 251 255 257 259 259 261 259 259 258 256 250 247 248 251 256 235 224 222 220 226 229 232 236 246 239 240 239 241 239 232 230 231 228 nan
272 273 273 271 272 279 280 283 284 280 279 278 279 279 280 281 281 282 284 287 288 289 291 292 292 293 293 293 293 291 290 288 287 285 284 284 284 285 288 290 288 288 285 279 278 275 271 266 258 253 249 247 249 254 254 254 255 254 254 254 252 250 243 235 234 226 227 228 221 222 225 228 233 237 251 244 245 241 239 238 236 235 235 231 225
265 267 268 268 269 278 276 278 278 275 274 274 275 276 278 280 281 283 287 289 290 292 293 294 294 292 293 292 292 290 288 287 285 284 283 282 281 281 281 281 280 277 273 273 275 270 272 264 260 254 250 250 250 250 250 249 250 250 247 248 248 245 239 228 223 226 225 228 226 225 227 232 230 235 252 252 247 243 240 234 234 239 239 233 228
264 262 259 260 264 271 271 272 273 271 269 271 273 276 278 279 282 287 289 292 295 296 297 297 295 294 293 291 289 288 286 285 284 284 284 285 285 284 284 285 283 279 277 272 267 269 268 263 258 254 249 249 247 247 248 244 246 245 244 242 243 240 236 227 224 222 229 232 233 228 227 236 230 238 250 255 251 248 249 243 241 241 240 243 239
262 257 249 252 259 262 265 267 268 266 267 270 274 277 279 282 286 291 293 297 300 301 300 299 297 294 292 289 287 286 286 285 284 284 286 287 287 286 286 285 283 280 275 275 271 269 268 263 257 253 248 248 244 241 239 238 237 241 242 239 237 234 230 222 221 222 242 243 237 230 237 244 227 235 253 254 252 245 242 243 242 242 242 244 244
269 265 248 248 258 258 262 264 265 266 269 271 274 277 277 282 289 294 297 300 302 302 301 298 296 294 290 289 287 286 285 285 285 286 287 287 288 288 288 287 285 281 278 277 273 269 267 262 258 254 249 247 242 236 230 228 227 232 234 232 228 226 221 218 224 237 245 248 241 235 232 232 234 248 258 256 254 250 248 245 243 243 245 243 242
274 274 256 249 250 255 259 262 263 263 265 269 272 275 280 286 290 294 299 301 301 301 300 297 294 291 290 289 288 286 286 286 286 287 288 288 289 288 288 288 287 285 282 279 273 268 266 262 257 252 247 243 238 234 228 224 223 225 226 224 221 221 222 222 231 241 245 245 241 239 237 234 236 253 257 258 256 254 250 245 245 246 243 241 243
282 274 256 249 250 254 258 258 258 260 261 262 267 274 281 286 290 295 299 300 300 298 295 292 291 290 290 289 288 287 287 287 287 288 288 289 289 288 288 289 289 288 286 282 275 268 265 262 256 250 245 240 237 233 227 221 219 221 220 220 219 222 224 220 234 240 244 245 242 243 240 238 243 259 260 263 263 259 254 249 247 246 246 247 244
288 261 244 249 251 250 256 254 253 252 254 258 265 272 278 282 289 295 297 298 298 295 294 292 292 292 291 289 287 287 287 287 287 288 288 288 289 288 288 289 290 289 287 282 275 269 263 259 254 248 243 240 235 230 222 216 214 217 219 218 220 223 224 222 226 240 242 245 242 243 242 243 258 263 265 263 260 258 257 254 250 249 248 245 245
271 248 238 247 249 247 242 249 246 245 248 254 260 267 274 282 289 293 296 297 295 293 293 293 293 291 290 288 288 288 288 288 288 288 288 288 289 289 288 288 289 288 287 282 275 268 261 257 255 249 244 240 235 228 220 214 212 215 216 216 219 224 225 230 226 234 237 242 243 242 242 245 262 264 265 264 262 261 260 257 256 253 251 252 250
265 251 244 246 249 244 239 238 241 243 243 247 255 263 271 281 289 294 296 294 292 291 292 291 291 290 290 290 290 291 292 292 293 293 291 290 289 289 288 287 287 288 284 279 274 267 259 255 254 251 244 239 233 227 219 214 211 214 214 215 219 222 224 234 235 236 236 240 245 248 247 248 260 263 267 266 266 265 266 265 261 254 253 251 253
263 254 246 239 246 245 245 241 232 229 232 241 252 262 271 281 289 293 293 290 290 291 291 291 291 291 292 292 292 293 293 294 294 294 293 291 289 288 286 285 286 285 283 278 272 266 259 253 251 249 245 237 233 227 218 213 211 213 213 213 218 220 221 223 241 244 238 240 242 245 245 248 261 264 268 269 269 267 263 259 262 260 258 256 253
275 263 245 253 253 249 248 238 229 227 227 230 237 253 270 281 289 292 289 289 288 291 292 290 291 290 291 291 291 291 292 293 293 292 291 290 290 286 282 282 283 283 281 276 269 263 257 251 248 247 245 239 232 226 219 213 210 213 212 214 218 220 218 224 240 245 240 237 239 244 246 257 258 263 266 268 268 268 268 268 266 264 260 259 256
275 273 266 265 261 255 248 238 232 229 227 230 236 245 264 280 290 287 287 286 289 290 287 287 287 286 287 287 286 286 289 290 294 292 293 290 286 282 282 279 279 278 276 270 264 260 257 251 245 244 243 242 235 227 219 214 211 211 213 216 219 224 221 223 240 239 240 238 236 245 253 260 260 262 265 268 270 268 265 264 262 266 268 262 262
278 277 276 279 270 262 253 242 239 235 234 234 235 244 256 276 279 284 285 285 288 288 286 286 283 285 284 285 280 280 281 282 285 286 292 284 284 282 283 279 276 275 272 266 261 258 257 253 248 247 243 242 237 233 226 217 212 211 213 217 222 225 221 226 240 238 237 236 236 239 261 262 263 262 262 264 265 266 265 267 267 264 nan 262 262
279 274 277 287 286 271 261 252 247 245 239 237 238 242 246 258 264 274 278 282 285 284 283 282 283 282 286 285 284 282 279 282 285 287 282 283 284 281 280 279 277 275 271 264 260 258 258 259 256 251 246 244 241 237 231 222 214 214 216 219 230 228 220 224 244 240 237 237 237 239 261 261 263 261 263 262 262 263 264 264 266 264 265 264 262
280 270 272 288 299 293 282 267 257 250 243 240 240 241 245 253 267 269 274 282 284 279 277 279 278 281 283 284 282 282 281 281 280 283 283 282 283 284 281 279 278 279 273 267 265 264 264 260 261 253 248 243 240 238 235 231 nan nan 221 234 234 234 221 224 243 244 241 238 236 250 259 261 264 262 261 263 263 263 262 262 262 262 nan nan nan
286 282 281 288 299 300 298 289 272 254 243 239 238 239 250 269 271 269 269 271 273 277 277 279 280 282 284 284 282 282 279 277 287 287 280 271 272 276 282 278 281 281 277 265 268 266 267 266 259 253 247 242 241 239 237 nan nan nan nan 232 237 240 224 225 243 244 243 240 238 258 257 259 263 264 262 262 263 264 264 262 261 261 nan nan 266
286 288 286 287 294 296 299 301 279 251 240 237 240 250 265 278 273 274 275 274 276 279 280 282 284 285 287 287 285 282 277 270 267 268 271 271 268 274 279 275 263 262 264 252 253 250 253 249 245 248 245 245 244 241 nan nan nan nan nan nan nan 242 228 226 240 242 245 242 240 257 257 256 261 265 264 261 262 264 264 264 264 nan nan nan nan
287 292 294 289 292 299 303 297 269 244 238 238 244 260 274 276 279 279 280 279 281 284 283 284 286 289 291 291 287 282 279 274 270 269 269 271 271 271 273 264 255 258 259 257 254 250 249 249 249 248 246 247 246 nan nan 240 236 236 238 nan nan nan 236 230 240 241 243 244 242 258 255 256 259 265 263 260 259 263 264 266 266 264 263 nan nan
293 290 287 283 282 289 305 304 275 253 249 249 250 256 268 278 283 283 290 289 287 286 284 285 287 290 293 292 289 285 280 277 275 272 270 272 273 269 263 263 262 256 254 252 246 247 250 253 248 247 245 246 247 245 243 240 242 nan nan nan nan nan 247 239 239 242 244 245 246 261 254 256 259 265 265 261 257 257 259 262 265 265 nan nan nan
286 284 281 279 286 290 300 311 301 298 292 285 278 271 275 286 287 295 293 296 292 290 288 288 290 292 293 295 290 291 286 280 275 274 274 271 270 262 261 263 260 254 251 252 249 248 254 255 251 244 246 247 250 250 249 245 nan nan nan nan nan nan 253 245 237 242 245 245 246 256 258 257 257 261 266 262 256 253 254 256 260 263 266 nan nan
280 282 278 279 289 281 331 340 332 331 325 301 289 280 288 291 296 299 298 304 296 292 291 290 292 293 293 295 293 294 288 283 277 274 272 270 264 260 261 260 256 253 254 255 254 255 255 256 251 245 244 245 249 nan nan nan nan nan nan nan nan nan nan 252 240 239 240 244 245 248 259 257 256 258 262 261 258 255 252 251 254 258 262 264 nan
269 270 268 259 247 221 194 343 315 317 319 298 290 292 300 303 303 305 303 302 299 293 294 294 295 294 297 292 293 297 293 285 274 266 268 265 265 264 260 256 256 255 259 263 258 261 261 257 250 243 238 243 250 255 259 254 nan nan nan nan nan nan nan 258 250 246 244 246 249 247 258 256 255 254 256 258 260 258 254 250 252 254 258 260 261
258 263 258 259 251 230 236 324 313 309 317 315 311 306 303 309 302 298 300 301 298 296 294 296 296 295 296 292 288 289 282 276 272 268 263 260 259 260 259 256 255 258 262 265 255 258 258 255 251 248 245 243 248 255 256 255 nan nan nan nan nan nan nan 256 252 249 247 246 250 251 253 261 257 254 256 255 254 258 258 254 254 254 254 255 257
267 271 266 262 258 245 270 322 323 315 327 323 317 310 315 312 300 297 298 294 296 295 291 292 294 293 292 292 293 290 283 273 266 265 265 262 255 253 254 256 255 255 257 258 257 256 258 254 251 252 252 249 249 250 256 260 nan nan nan nan nan nan nan 258 249 251 247 243 246 252 253 255 261 258 260 258 255 254 259 258 257 257 254 253 255
253 253 256 252 248 248 277 308 317 322 328 327 322 318 315 309 300 298 290 291 294 290 290 290 288 288 291 293 293 291 286 280 268 259 259 258 248 245 244 244 246 249 248 253 254 252 252 253 253 253 253 253 254 255 255 260 259 nan nan nan nan nan nan nan 251 242 243 241 240 246 250 253 254 260 264 264 260 255 257 259 260 260 257 255 254
260 247 239 234 224 228 259 288 312 323 329 325 320 319 316 300 295 294 290 285 291 291 287 285 283 285 291 292 292 291 284 282 273 257 243 242 242 243 247 249 250 251 253 255 256 252 254 257 258 258 256 260 262 262 262 256 nan nan nan nan nan nan nan nan nan 255 247 240 233 232 234 236 243 250 254 265 265 260 258 257 261 262 262 259 256
253 240 226 220 219 218 253 292 316 322 325 322 321 318 308 301 303 300 295 288 282 286 280 281 283 287 286 290 288 286 279 277 273 261 250 247 249 251 254 259 258 255 260 262 267 263 264 262 257 257 256 257 261 259 255 251 258 251 248 nan nan nan nan nan nan 255 255 251 245 239 237 240 239 238 239 244 258 262 261 256 259 258 265 263 259
257 252 235 221 219 216 299 307 315 319 319 318 316 316 313 307 308 309 304 285 276 276 281 284 281 283 285 285 283 279 275 269 266 265 261 256 256 257 258 258 258 256 261 262 263 266 262 260 258 259 258 255 262 263 258 254 256 259 253 251 255 nan nan nan nan 251 255 254 253 248 243 239 237 238 241 243 245 250 259 258 257 256 263 264 263
259 263 246 224 219 245 302 303 311 315 314 313 315 315 311 307 308 311 303 286 283 289 282 280 278 283 287 287 282 277 274 275 271 268 267 263 258 257 260 263 263 261 258 260 265 268 270 267 262 261 264 266 262 264 255 252 257 257 257 254 251 257 nan 255 247 246 250 252 254 254 249 244 243 245 243 246 248 247 247 253 254 255 258 261 264
262 266 227 192 214 270 288 293 300 308 312 313 315 315 314 308 306 303 294 298 288 279 282 281 282 281 288 290 283 272 273 271 269 268 267 262 262 264 263 266 267 266 267 264 266 267 266 262 264 256 258 254 250 255 257 254 252 256 256 252 248 252 259 259 251 246 nan nan 249 253 254 249 246 246 246 249 252 254 250 245 247 252 255 258 261
252 272 282 109 85 299 290 294 300 304 306 305 303 302 297 293 291 293 290 289 284 283 284 280 280 276 271 270 271 274 275 271 268 271 270 270 270 269 268 267 268 269 269 269 268 265 267 269 266 263 258 257 254 252 260 261 254 251 250 246 248 250 252 254 257 253 250 249 250 250 nan nan 246 244 244 247 250 254 254 249 245 245 247 257 259
287 296 311 333 341 312 297 296 301 304 302 297 293 288 285 289 287 287 286 291 292 291 290 294 287 282 282 277 273 275 280 276 271 268 268 270 271 267 268 269 269 271 273 273 271 271 271 269 276 269 261 255 250 249 252 253 250 249 246 247 252 253 253 254 255 260 261 259 254 256 nan nan nan 242 242 244 248 249 251 252 250 249 246 248 256
299 309 307 318 318 315 303 303 303 301 298 294 289 288 287 286 nan nan nan 299 298 295 293 299 295 289 nan nan 276 nan 272 276 274 271 269 263 262 264 268 265 263 266 269 272 271 268 265 266 268 264 264 260 252 249 248 253 251 245 246 246 248 256 258 257 255 257 261 262 262 269 nan nan nan nan 243 243 245 246 249 251 253 255 253 247 247
306 309 307 312 310 306 304 302 297 298 298 296 292 286 nan 297 297 302 nan nan nan nan nan nan nan nan nan nan nan nan nan nan 264 nan nan 267 268 263 262 265 265 264 263 265 267 265 263 261 262 258 259 261 257 256 252 252 250 254 251 242 239 243 255 259 259 259 259 264 264 266 275 nan nan 238 235 nan 242 nan 247 249 251 255 256 254 249
305 304 303 303 303 302 301 297 296 297 297 294 nan nan nan nan nan nan nan nan nan nan nan nan nan nan nan nan nan nan nan nan nan nan nan 263 265 266 266 270 270 266 261 256 256 257 261 264 261 262 259 257 260 261 261 257 259 257 256 251 247 246 248 250 255 255 255 262 262 261 262 nan nan 242 243 241 nan 244 246 249 251 254 257 259 255
294 294 297 300 298 299 296 295 297 296 295 293 nan nan nan nan 289 298 295 nan nan nan nan nan nan nan nan nan nan nan nan nan nan nan nan nan nan nan nan 260 265 265 264 258 255 253 253 255 257 257 261 261 260 258 259 264 259 263 253 254 253 255 246 nan 254 253 255 256 254 256 258 255 248 241 240 239 240 242 245 249 251 254 257 259 258
292 294 297 298 296 298 295 296 296 293 289 286 nan nan nan 278 278 278 286 nan nan nan nan nan nan nan nan nan nan nan nan nan nan nan nan nan nan nan nan nan 260 259 262 263 nan nan 260 258 257 259 258 263 259 257 251 256 260 257 264 255 246 247 254 253 252 249 247 nan 245 251 255 256 252 246 244 238 240 243 241 245 249 251 253 255 257
292 294 295 296 294 295 292 286 281 280 283 286 292 290 287 nan 287 288 nan nan nan nan nan nan nan nan nan nan nan nan nan nan nan nan nan nan nan nan nan nan nan nan nan nan nan nan nan 260 262 263 259 258 265 258 256 247 254 255 256 253 251 nan 250 250 252 nan 241 252 249 251 254 255 256 251 249 245 239 237 240 241 245 249 251 254 256
288 288 290 294 296 294 290 284 280 276 277 284 291 290 nan nan nan nan nan nan nan nan nan nan nan nan nan nan nan nan nan nan nan nan nan nan nan nan nan nan nan nan nan nan nan nan nan nan nan 257 259 nan nan nan nan 258 254 253 253 248 247 246 248 250 250 251 nan 246 250 248 243 244 248 251 250 252 244 240 240 241 242 246 246 247 252
285 284 287 290 295 295 291 286 279 278 277 282 286 290 nan nan nan nan nan nan nan nan nan nan nan nan nan nan nan nan nan nan nan nan nan nan nan nan nan nan nan nan nan nan nan nan nan nan nan nan nan nan nan nan 263 nan 263 258 252 248 244 242 243 244 249 252 258 255 248 245 251 247 245 249 251 245 243 249 250 239 231 237 244 244 241
284 289 290 289 290 293 290 284 283 281 280 281 283 284 nan nan nan nan nan nan nan nan nan nan nan nan nan nan nan nan nan nan nan nan nan nan nan nan nan nan nan nan nan nan nan nan nan nan nan nan nan nan nan nan nan nan 260 261 260 nan nan nan 242 246 248 249 254 nan nan nan nan nan 248 245 244 244 234 233 241 nan 248 238 238 241 240
283 284 288 290 289 287 287 285 282 278 279 281 283 284 nan nan nan nan nan nan nan nan nan nan nan nan nan nan nan nan nan nan nan nan nan nan nan nan nan nan nan nan nan nan nan nan nan nan nan nan nan nan nan nan nan nan nan nan nan nan nan nan nan 242 242 247 249 nan nan nan nan nan nan nan 240 238 239 241 247 248 nan nan nan 237 229
274 278 282 286 286 287 285 284 279 272 274 281 284 nan nan nan nan nan nan nan nan nan nan nan nan nan nan nan nan nan nan nan nan nan nan nan nan nan nan nan nan nan nan nan nan nan nan nan nan nan nan nan nan nan nan nan nan nan nan nan nan nan nan nan nan nan nan nan nan nan nan nan nan nan nan nan nan 247 246 247 nan nan nan nan nan